User: anonymous   Login
Location: Lac de la Montange Noire
(46.1952°N, 74.2701°W)
Time: 09:46:03
(UTC-05:00)
Language:

Iridium 42 - Orbit

View from above orbital plane
View from above orbital plane
View from above satellite
View from above satellite

Ground track
Ground track

The orbit data is extracted from the following two-line orbital elements,

1 25077U 97077A   17022.54400256  .00000021  00000-0  47071-6 0  9997
2 25077  86.3956  82.8306 0002344  91.5277 268.6188 14.34522041  1311
Epoch (UTC): 22 January 2017 13:03:21
Eccentricity: 0.0002344
inclination: 86.3956°
perigee height: 775 km
apogee height: 778 km
right ascension of ascending node: 82.8306°
argument of perigee: 91.5277°
revolutions per day: 14.34522041
mean anomaly at epoch: 268.6188°
orbit number at epoch: 131

The dashed part of the orbit path shows where the satellite is in the earth's shadow,  

DLR